Location: Unspecified
(0.0000°N, 0.0000°E)
Time: 00:51:59
(UTC+01:00)

JASON 3 - Pass Details

Date: 05 October 2020
Orbit: 1332 x 1343 km, 66.0° (Epoch: 27 October)

Event Time Altitude Azimuth Distance (km) Brightness Sun altitude
Rises 20:47:09 0° 2° (N) 4,343 ? -14.7°
Reaches altitude 10° 20:50:32 10° 14° (NNE) 3,372 ? -15.5°
Maximum altitude 20:57:12 28° 69° (ENE) 2,300 ? -17.2°
Enters shadow 20:59:28 24° 95° (E) 2,451 ? -17.7°
